This is the latest recevied weather packets stored in our database for station/object DB7GV-8. If no packets are shown the sender has not sent any weather packets the latest 10 day(s).
| Time | Temp. | Humidity | Pressure | Rain* | Wind** | Luminosity | Snow |
|---|---|---|---|---|---|---|---|
| 1778124176 | 8.33° C | 92% | 1013.7 hPa | - | - | - | - |
| 1778123271 | 7.78° C | 91% | 1013.5 hPa | - | - | - | - |
| 1778122365 | 7.78° C | 90% | 1013.5 hPa | - | - | - | - |
| 1778121461 | 7.78° C | 90% | 1013.4 hPa | - | - | - | - |
| 1778120554 | 7.78° C | 90% | 1013.5 hPa | - | - | - | - |
| 1778119649 | 7.22° C | 89% | 1013.4 hPa | - | - | - | - |
| 1778118744 | 7.22° C | 89% | 1013.2 hPa | - | - | - | - |
| 1778117838 | 7.22° C | 89% | 1013.2 hPa | - | - | - | - |
| 1778116933 | 7.22° C | 89% | 1013.1 hPa | - | - | - | - |
| 1778116028 | 7.22° C | 89% | 1013.1 hPa | - | - | - | - |
| 1778115122 | 6.67° C | 88% | 1013.1 hPa | - | - | - | - |
| 1778114217 | 7.22° C | 88% | 1013 hPa | - | - | - | - |
| 1778113311 | 7.22° C | 88% | 1012.9 hPa | - | - | - | - |
| 1778112405 | 7.22° C | 88% | 1012.8 hPa | - | - | - | - |
| 1778111500 | 7.22° C | 88% | 1012.8 hPa | - | - | - | - |
| 1778110595 | 7.78° C | 88% | 1012.9 hPa | - | - | - | - |
| 1778109690 | 7.78° C | 88% | 1012.8 hPa | - | - | - | - |
| 1778108784 | 7.78° C | 89% | 1012.6 hPa | - | - | - | - |
| 1778107879 | 8.33° C | 89% | 1012.7 hPa | - | - | - | - |
| 1778106973 | 8.33° C | 89% | 1012.6 hPa | - | - | - | - |
| 1778106068 | 8.89° C | 89% | 1012.6 hPa | - | - | - | - |
| 1778105162 | 8.89° C | 89% | 1012.6 hPa | - | - | - | - |
| 1778104257 | 9.44° C | 88% | 1012.6 hPa | - | - | - | - |
| 1778103352 | 10° C | 87% | 1012.5 hPa | - | - | - | - |
| 1778102446 | 9.44° C | 87% | 1012.8 hPa | - | - | - | - |
* Rain since midnight (hover to see other rain measurements)
** Current wind speed in m/s (hover to see current wind gust speed)